Location: Ballingbuur
(53.0000°N, 5.7667°E)
Time: 06:51:37
(UTC+00:00)

Meteor 1-26 Rocket - Pass Details

Date: 29 November 2020
Orbit: 807 x 928 km, 81.3° (Epoch: 24 January)

Event Time Altitude Azimuth Distance (km) Brightness Sun altitude
Exits shadow 04:49:22 33° 326° (NW) 1,444 5.1 -22.4°
Maximum altitude 04:51:48 57° 264° (W) 1,026 4.2 -22.0°
Drops below altitude 10° 04:57:17 10° 187° (S) 2,473 6.6 -21.2°
Sets 04:59:41 0° 184° (S) 3,387 7.4 -20.8°
